[[{"header":{"parameterUnit":"m.s-1","parameterCategory":1,"la1":30.2991,"la2":30.254,"lo1":-89.0895,"lo2":-89.0444,"dy":0.0017,"dx":0.0017,"nx":28,"ny":28,"refTime":"2023-09-21T03:00:00:Z","depth":0,"parameterNumber":2,"parameterNumberName":"U-component_of_WINDS"},"data":[0,0,0,0,0,0,0,0,0,0,0,0,0,0,0,0,0,0,0,0,0,0,0,0,0,0,0,0,0,0,0,0,0,0,0,0,0,0,0,0,0,0,0,0,0,0,0,0,0,0,0,0,0,0,0,0,0,0,-1.724,-1.724,0,-1.7257,-1.7257,-1.7257,-1.7191,-1.7189,-1.7187,-1.7185,-1.7205,-1.7207,-1.721,0,0,0,0,0,0,0,0,0,0,0,0,0,-1.7155,-1.7157,-1.724,-1.724,-1.7241,-1.7257,-1.7257,-1.7257,-1.7191,-1.7188,-1.7186,-1.7184,-1.7204,-1.7207,-1.721,0,0,0,0,0,0,0,0,0,0,0,0,0,-1.7184,-1.7157,-1.724,-1.7209,-1.7207,-1.7257,-1.7257,-1.7257,-1.7191,-1.7188,-1.7185,-1.7183,-1.7203,-1.7207,-1.721,-1.7291,0,0,-1.7221,-1.7223,0,0,0,0,0,0,0,0,-1.7182,-1.7187,-1.7214,-1.7212,-1.7209,-1.7218,-1.7234,-1.7269,-1.7192,-1.7197,-1.7185,-1.7181,-1.7212,-1.7215,-1.7224,-1.7292,-1.7293,-1.7221,-1.7224,-1.7225,-1.7226,0,0,0,0,0,0,0,-1.718,-1.7186,-1.7247,-1.7214,-1.7211,-1.7196,-1.7197,-1.724,-1.7221,-1.7197,-1.7192,-1.7195,-1.721,-1.7221,-1.7224,-1.7293,-1.7221,-1.7224,-1.7227,-1.7228,-1.7429,-1.7432,0,0,0,0,0,0,-1.7182,-1.7185,-1.7246,-1.7247,-1.7188,-1.72,-1.7201,-1.7218,-1.722,-1.7218,-1.7197,-1.7191,-1.7216,-1.722,-1.7225,-1.7319,-1.7225,-1.7228,-1.723,-1.7426,-1.7429,-1.7433,0,0,0,0,0,0,-1.718,-1.7188,-1.7246,-1.7215,-1.7221,-1.7204,-1.7225,-1.722,-1.7231,-1.7221,-1.7217,-1.7212,-1.7214,-1.722,-1.7275,-1.7319,-1.723,-1.7233,-1.7422,-1.7427,-1.7431,-1.751,0,0,0,0,0,0,-1.7178,-1.7188,-1.7218,-1.7216,-1.7223,-1.7295,-1.7227,-1.7223,-1.7237,-1.723,-1.7233,-1.7231,-1.7212,-1.727,-1.7279,-1.7322,-1.7236,-1.7418,-1.7424,-1.743,-1.7503,-1.7517,-1.7528,0,0,0,0,0,-1.7175,-1.724,-1.7219,-1.7227,-1.7259,-1.7297,-1.7301,-1.7277,-1.7241,-1.7271,-1.7265,-1.7231,-1.7313,-1.7276,-1.7285,-1.7331,-1.7415,-1.7422,-1.7429,-1.7497,-1.7514,-1.7528,0,0,0,0,0,0,-1.7248,-1.7239,-1.7216,-1.7282,-1.7291,-1.7286,-1.7323,-1.7296,-1.7316,-1.7308,-1.7279,-1.728,-1.7341,-1.7342,-1.7301,-1.741,-1.7358,-1.7367,-1.7407,-1.7422,-1.7435,-1.7433,-1.7239,0,0,0,0,0,-1.7272,-1.7302,-1.7293,-1.7352,-1.7357,-1.734,-1.7356,-1.7336,-1.7345,-1.7348,-1.7346,-1.7356,-1.7384,-1.7404,-1.7429,-1.7503,-1.7503,-1.7539,-1.7552,-1.7562,-1.757,-1.761,-1.7626,-1.7457,-1.7456,-1.7456,0,0,-1.7321,-1.732,-1.7341,-1.7366,-1.7371,-1.7404,-1.7343,-1.7381,-1.7406,-1.7355,-1.7406,-1.7405,-1.7415,-1.748,-1.7508,-1.7482,-1.7617,-1.7571,-1.758,-1.7582,-1.7619,-1.7635,-1.7649,-1.7461,-1.7461,-1.746,0,0,-1.7427,-1.7429,-1.7478,-1.7484,-1.7492,-1.748,-1.7492,-1.7491,-1.7488,-1.7539,-1.7501,-1.7531,-1.758,-1.7588,-1.7599,-1.771,-1.768,-1.7719,-1.7784,-1.7823,-1.7836,-1.7848,-1.7887,-1.7901,-1.7727,-1.7728,-1.7728,0,-1.7488,-1.7535,-1.7507,-1.7547,-1.756,-1.7515,-1.7564,-1.7572,-1.7588,-1.7598,-1.7568,-1.7629,-1.7632,-1.7699,-1.7726,-1.7736,-1.7749,-1.7718,-1.7836,-1.7848,-1.7858,-1.7895,-1.791,-1.7732,-1.7732,-1.7731,-1.7731,0,-1.7609,-1.7642,-1.7681,-1.7696,-1.7713,-1.7758,-1.7739,-1.776,-1.774,-1.7731,-1.7784,-1.7787,-1.7812,-1.7826,-1.7808,-1.7891,-1.7874,-1.7841,-1.7788,-1.788,-1.7914,-1.7928,-1.7739,-1.7737,-1.7736,-1.7735,0,0,-1.776,-1.776,-1.7775,-1.7781,-1.7786,-1.7812,-1.7856,-1.7879,-1.7897,-1.7911,-1.7946,-1.7989,-1.7959,-1.7971,-1.7953,-1.7987,-1.8074,-1.795,-1.795,-1.7972,-1.8166,-1.819,-1.8207,-1.8055,-1.8057,-1.8059,-1.8165,0,-1.7864,-1.7936,-1.7913,-1.7987,-1.8018,-1.7976,-1.8014,-1.8022,-1.8015,-1.8041,-1.8035,-1.8065,-1.8023,-1.803,-1.8062,-1.8057,-1.8112,-1.8049,-1.8088,-1.809,-1.8086,-1.8224,-1.825,-1.8349,-1.8178,-1.818,-1.8182,0,-1.7994,-1.8011,-1.8087,-1.8087,-1.8099,-1.8134,-1.8153,-1.8179,-1.8188,-1.8181,-1.8195,-1.817,-1.8213,-1.8161,-1.8221,-1.8179,-1.8194,-1.8194,-1.8197,-1.8199,-1.8141,-1.823,-1.838,-1.8395,-1.8203,-1.8201,-1.82,0,-1.8096,-1.8138,-1.8189,-1.8196,-1.8198,-1.8223,-1.8225,-1.8231,-1.8246,-1.8264,-1.8274,-1.8298,-1.831,-1.833,-1.8312,-1.8276,-1.8375,-1.8321,-1.8371,-1.8371,-1.8393,-1.8392,-1.8547,-1.8404,-1.8404,-1.8404,-1.8403,0,-1.8213,-1.8262,-1.8235,-1.8266,-1.832,-1.8294,-1.8348,-1.8345,-1.8351,-1.8382,-1.8348,-1.8378,-1.8353,-1.8381,-1.8368,-1.842,-1.8426,-1.8422,-1.8418,-1.8425,-1.8425,-1.8434,-1.8426,-1.8408,-1.8407,-1.8406,-1.8405,0,-1.8336,-1.832,-1.8373,-1.837,-1.837,-1.841,-1.8408,-1.8437,-1.8429,-1.8468,-1.8476,-1.8463,-1.8495,-1.8479,-1.8513,-1.8504,-1.8571,-1.8558,-1.8567,-1.8563,-1.8614,-1.8609,-1.8779,-1.88,-1.8645,-1.8646,-1.8647,0,-1.8411,-1.8447,-1.8448,-1.8466,-1.847,-1.8499,-1.8515,-1.8491,-1.8509,-1.8522,-1.855,-1.8579,-1.86,-1.8653,-1.8647,-1.8672,-1.8659,-1.8717,-1.8663,-1.8669,-1.866,-1.8657,-1.8661,-1.8728,-1.873,-1.8731,-1.8733,0,-1.8547,-1.8537,-1.856,-1.8581,-1.86,-1.8616,-1.8629,-1.8645,-1.8622,-1.8644,-1.8675,-1.8692,-1.8726,-1.8755,-1.8777,-1.878,-1.8753,-1.875,-1.8763,-1.8769,-1.8773,-1.8771,-1.8596,-1.8746,-1.8745,-1.8744,-1.8743,-1.8742,-1.8648,-1.8678,-1.8683,-1.871,-1.8717,-1.873,-1.8757,-1.8752,-1.8777,-1.8801,-1.8787,-1.8824,-1.8832,-1.8859,-1.8866,-1.8896,-1.8873,-1.8891,-1.8896,-1.89,-1.8907,-1.8769,-1.89,-1.8899,-1.8899,-1.8899,-1.8898,0,-1.8781,-1.8782,-1.8807,-1.8825,-1.8847,-1.8819,-1.8832,-1.8852,-1.8884,-1.8894,-1.8916,-1.8952,-1.898,-1.8977,-1.9003,-1.9027,-1.9015,-1.9035,-1.9032,-1.9033,-1.8926,-1.8912,-1.9044,-1.9044,-1.9044,-1.9044,-1.9043,-1.9043,-1.8852,-1.8901,-1.8893,-1.8946,-1.8947,-1.8981,-1.8991,-1.9003,-1.9011,-1.9053,-1.9075,-1.9073,-1.9078,-1.9104,-1.9128,-1.9127,-1.9138,-1.9162,-1.9156,-1.9055,-1.9041,-1.9027,-1.9014,-1.9165,-1.9165,-1.926,-1.9261,-1.9262]},{"header":{"parameterUnit":"m.s-1","parameterCategory":1,"la1":30.2991,"la2":30.254,"lo1":-89.0895,"lo2":-89.0444,"dy":0.0017,"dx":0.0017,"nx":28,"ny":28,"refTime":"2023-09-21T03:00:00:Z","depth":0,"parameterNumber":3,"parameterNumberName":"V-component_of_WINDS"},"data":[0,0,0,0,0,0,0,0,0,0,0,0,0,0,0,0,0,0,0,0,0,0,0,0,0,0,0,0,0,0,0,0,0,0,0,0,0,0,0,0,0,0,0,0,0,0,0,0,0,0,0,0,0,0,0,0,0,0,1.0456,1.0455,0,1.0389,1.0388,1.0387,1.0361,1.0361,1.0362,1.0362,1.0289,1.0287,1.0285,0,0,0,0,0,0,0,0,0,0,0,0,0,1.0558,1.0557,1.0456,1.0455,1.0454,1.0389,1.0388,1.0387,1.0361,1.0361,1.0362,1.0362,1.0289,1.0287,1.0284,0,0,0,0,0,0,0,0,0,0,0,0,0,1.0505,1.0556,1.0456,1.0434,1.0431,1.0389,1.0388,1.0387,1.0361,1.0361,1.0362,1.0362,1.029,1.0287,1.0284,1.0258,0,0,1.0274,1.0273,0,0,0,0,0,0,0,0,1.0508,1.0501,1.0438,1.0435,1.0432,1.0384,1.0397,1.0344,1.0361,1.0388,1.0362,1.0362,1.032,1.0314,1.0301,1.0255,1.0252,1.0274,1.0272,1.0271,1.027,0,0,0,0,0,0,0,1.0512,1.0504,1.0429,1.0437,1.0433,1.0426,1.0419,1.0387,1.0353,1.0385,1.0383,1.0376,1.0318,1.0304,1.0299,1.0251,1.0274,1.0271,1.0269,1.0268,1.018,1.018,0,0,0,0,0,0,1.052,1.0507,1.0432,1.0427,1.0472,1.0424,1.0416,1.0399,1.0353,1.0346,1.0376,1.0375,1.0309,1.0303,1.0296,1.0263,1.0271,1.0268,1.0266,1.0181,1.018,1.018,0,0,0,0,0,0,1.0522,1.0513,1.0434,1.0467,1.0456,1.0422,1.0403,1.0397,1.0383,1.0346,1.0339,1.0368,1.0309,1.0301,1.0268,1.026,1.0266,1.0263,1.0181,1.0181,1.018,1.0197,0,0,0,0,0,0,1.0525,1.0514,1.0505,1.0467,1.0455,1.0408,1.0403,1.0396,1.0378,1.0377,1.0336,1.033,1.0309,1.0273,1.0265,1.0256,1.0261,1.0182,1.0181,1.018,1.0197,1.0197,1.0197,0,0,0,0,0,1.0529,1.0511,1.0505,1.0496,1.0442,1.0408,1.0401,1.0378,1.0378,1.0367,1.0344,1.0331,1.0263,1.027,1.0261,1.0251,1.0182,1.0181,1.018,1.0197,1.0197,1.0197,0,0,0,0,0,0,1.0548,1.0506,1.0498,1.0468,1.0442,1.0404,1.039,1.0379,1.0351,1.0351,1.0322,1.0314,1.0283,1.0264,1.0273,1.0223,1.0222,1.0219,1.0237,1.0237,1.0237,1.0242,1.0258,0,0,0,0,0,1.0549,1.0526,1.049,1.0467,1.0454,1.0425,1.0409,1.0394,1.0365,1.0354,1.0327,1.0299,1.0271,1.0253,1.0225,1.0194,1.0185,1.0183,1.0183,1.0183,1.018,1.0162,1.0161,1.0177,1.0177,1.0177,0,0,1.055,1.0524,1.0511,1.047,1.0448,1.0424,1.0415,1.039,1.0371,1.0349,1.0317,1.0297,1.0264,1.0232,1.0217,1.0215,1.0174,1.0182,1.0182,1.0179,1.0161,1.016,1.0158,1.0176,1.0176,1.0176,0,0,1.0539,1.0518,1.0496,1.0475,1.0443,1.0423,1.0418,1.0382,1.0368,1.0336,1.0319,1.0296,1.0249,1.0226,1.0208,1.019,1.0177,1.0181,1.0181,1.0164,1.0162,1.0161,1.0154,1.0152,1.0179,1.0179,1.0179,0,1.0544,1.0508,1.0486,1.0462,1.0444,1.0425,1.0402,1.0382,1.0342,1.033,1.0328,1.0269,1.0245,1.0207,1.0203,1.019,1.0182,1.0185,1.0165,1.0163,1.0162,1.0155,1.0152,1.018,1.018,1.018,1.018,0,1.0516,1.0491,1.0477,1.044,1.0421,1.0398,1.0371,1.0354,1.0341,1.0322,1.0289,1.026,1.0226,1.0216,1.0202,1.0177,1.0176,1.0171,1.0168,1.0161,1.0154,1.0151,1.0181,1.0181,1.018,1.018,0,0,1.0514,1.0467,1.0462,1.0445,1.0408,1.0388,1.0364,1.0332,1.0318,1.0291,1.0269,1.023,1.0224,1.0204,1.0188,1.0173,1.016,1.0168,1.0167,1.0167,1.0129,1.0134,1.0131,1.0152,1.0151,1.0151,1.0132,0,1.0498,1.0455,1.0435,1.04,1.0377,1.0359,1.0337,1.0312,1.0293,1.027,1.0249,1.0221,1.0216,1.0204,1.0189,1.0165,1.0152,1.0166,1.013,1.0129,1.0138,1.0127,1.0131,1.0115,1.0129,1.0129,1.0128,0,1.0473,1.0448,1.0412,1.0378,1.0368,1.0349,1.0319,1.0297,1.0268,1.0255,1.0233,1.0218,1.019,1.0191,1.0152,1.0163,1.0147,1.0133,1.0132,1.0127,1.0128,1.0121,1.0109,1.0106,1.0124,1.0124,1.0124,0,1.0475,1.0432,1.0405,1.0391,1.0351,1.0339,1.0321,1.0293,1.0275,1.0248,1.0236,1.0206,1.0189,1.0166,1.0142,1.0145,1.0106,1.0104,1.0094,1.0094,1.0085,1.0086,1.007,1.0077,1.0077,1.0077,1.0077,0,1.0459,1.0437,1.0405,1.0388,1.0363,1.034,1.0315,1.0296,1.0271,1.0249,1.0232,1.0211,1.0182,1.0158,1.0139,1.011,1.0102,1.0091,1.0086,1.0092,1.0093,1.008,1.008,1.0076,1.0076,1.0076,1.0077,0,1.0456,1.0434,1.0403,1.0369,1.036,1.0342,1.0313,1.0295,1.0276,1.0249,1.0241,1.0211,1.0181,1.0156,1.0117,1.0104,1.0074,1.0068,1.0084,1.0081,1.0072,1.0073,1.0046,1.0041,1.0052,1.0052,1.0052,0,1.0447,1.043,1.0394,1.0379,1.0363,1.0339,1.0321,1.0298,1.028,1.0246,1.0232,1.0202,1.0177,1.013,1.0104,1.0074,1.0067,1.006,1.0062,1.0069,1.0066,1.0067,1.0065,1.0059,1.0059,1.0059,1.0059,0,1.0432,1.0423,1.0399,1.0371,1.0351,1.0328,1.0304,1.0292,1.0264,1.0245,1.0216,1.0196,1.0157,1.0127,1.0094,1.0075,1.0062,1.0059,1.0055,1.006,1.007,1.0064,1.0083,1.0059,1.0059,1.0059,1.0059,1.0059,1.0425,1.0409,1.0382,1.0356,1.0336,1.0315,1.0297,1.0276,1.0252,1.0219,1.0207,1.0177,1.0148,1.0103,1.0084,1.0059,1.0057,1.0051,1.0049,1.0048,1.0049,1.0075,1.0053,1.0053,1.0053,1.0053,1.0053,0,1.0409,1.0392,1.0368,1.0336,1.0315,1.0307,1.028,1.0263,1.0238,1.0213,1.0188,1.0154,1.0125,1.0098,1.0067,1.0052,1.0046,1.0045,1.0045,1.0041,1.0053,1.0059,1.0051,1.0051,1.0051,1.0051,1.0051,1.0051,1.0399,1.0371,1.0359,1.0321,1.0303,1.0274,1.026,1.0239,1.0219,1.0183,1.0159,1.0142,1.0115,1.0083,1.0056,1.0048,1.0037,1.0038,1.0028,1.004,1.004,1.0041,1.0046,1.0036,1.0036,1.0019,1.0018,1.0018]}]]